RH
49 49 51 50 49 48 47 46 48 51 51 50 48 42 38 38 39 40 41 42 41 40 37 36 34 32 31 32 31 31 30 26 22 19 17 15 13 12 12 14 15 16 17 19 20 20 20 20 20 20 20 21 22 23 23 24 24 25 29 33 33 33 39 39 40 42 44 49 47 46 46 45 46 44 44 47 47 48 51 53 55 58 59 62 67 71 72 72
49 49 50 48 48 47 46 45 47 51 51 50 46 42 40 40 42 42 42 42 39 38 35 32 30 30 31 31 30 28 24 22 19 17 15 13 13 13 16 18 18 19 19 21 22 21 22 22 22 22 23 23 25 26 28 30 30 32 33 35 38 40 44 41 41 42 43 48 49 48 49 49 50 49 49 53 53 52 54 54 55 60 64 65 70 74 75 73
49 49 48 46 47 47 47 45 46 49 49 47 45 43 42 41 42 43 42 40 37 35 32 30 30 30 30 29 26 24 21 20 18 16 14 14 15 17 19 20 20 21 22 23 23 23 23 24 24 25 25 27 30 30 32 35 36 39 37 41 47 45 43 44 45 45 46 50 50 51 53 53 56 56 57 62 61 56 57 57 58 62 65 69 74 75 75 76
48 47 46 46 47 48 47 45 45 47 49 48 46 44 41 41 42 42 40 38 35 33 31 31 30 29 28 26 25 23 21 20 18 17 16 16 18 20 21 22 22 23 23 24 24 24 24 25 26 28 30 33 35 35 37 39 41 44 45 49 52 45 47 50 50 51 52 53 54 56 56 57 60 61 63 67 68 63 61 62 63 63 64 70 78 78 77 80
46 46 46 47 48 48 46 45 46 48 49 47 45 42 41 41 41 40 38 35 34 32 31 31 29 28 26 25 24 22 20 19 18 18 18 19 21 22 23 23 23 24 24 25 25 25 26 27 29 33 37 40 43 45 47 45 44 50 51 49 50 47 52 54 53 57 58 58 60 61 61 65 68 69 72 72 72 73 68 68 66 62 64 70 77 80 81 83
43 44 46 47 47 46 46 46 47 47 47 46 44 42 41 41 39 37 36 34 33 32 30 29 27 26 25 24 24 22 21 19 18 20 20 21 23 23 23 24 24 24 25 25 26 27 29 32 36 39 41 45 49 51 53 48 47 57 56 50 53 53 54 56 57 60 60 62 65 67 68 70 73 74 76 74 73 75 72 71 68 63 67 72 77 82 83 83
45 45 44 44 46 46 46 47 47 47 46 45 44 42 41 39 37 36 35 33 32 30 28 26 25 24 24 24 23 22 22 20 20 22 21 23 24 24 24 25 25 25 25 27 29 30 33 37 41 42 46 51 53 52 52 49 49 57 58 54 57 56 56 58 60 62 63 64 66 69 72 73 74 75 75 75 73 74 73 72 68 66 71 75 79 84 84 84
48 46 45 44 45 46 46 47 47 47 46 45 42 41 39 37 36 35 33 31 29 27 26 24 24 24 24 22 22 22 22 22 22 22 23 24 24 24 25 25 25 26 28 30 32 35 37 39 43 46 50 53 54 53 52 53 56 55 55 56 57 56 57 60 63 64 64 65 68 72 76 77 78 79 79 78 75 74 73 70 68 69 74 78 82 86 86 88
47 46 46 44 44 45 45 46 46 46 44 42 40 39 37 36 34 32 31 28 27 26 24 24 23 23 23 22 24 23 23 24 23 23 24 24 24 24 24 25 26 28 31 33 35 38 40 43 46 48 51 52 53 54 52 57 61 55 54 58 58 57 59 62 64 65 66 69 74 78 80 81 82 81 82 83 80 81 77 70 73 75 77 82 87 89 88 88
45 45 44 44 44 44 45 45 45 43 41 40 38 36 34 32 31 29 28 27 26 24 23 23 23 23 23 24 25 24 23 24 23 24 24 24 24 24 24 25 27 30 33 35 38 39 42 47 49 49 52 53 54 53 51 56 58 53 55 60 61 60 61 65 66 66 70 74 78 81 83 84 84 81 82 87 85 89 86 78 82 86 85 87 90 90 88 88
42 42 43 43 44 44 45 44 43 41 39 37 34 32 30 29 29 28 28 27 25 23 23 23 24 25 24 25 26 23 24 24 23 24 24 24 24 24 25 26 28 32 35 38 41 41 45 49 50 51 54 53 53 52 52 54 55 54 56 59 60 61 64 67 68 69 74 76 78 83 86 85 86 84 84 90 91 91 91 89 92 93 89 91 90 88 86 85
40 41 42 42 43 43 43 41 39 37 34 32 30 28 28 29 30 28 27 26 24 23 24 25 26 25 24 26 26 24 24 23 23 23 23 24 24 24 26 29 31 34 38 40 42 43 47 49 49 52 54 52 53 56 56 55 57 57 57 61 61 62 67 69 69 72 74 77 79 86 91 87 87 87 83 88 92 91 90 91 94 91 88 89 88 83 80 78
38 39 40 40 41 39 39 37 34 32 30 28 27 28 31 32 31 29 27 26 25 25 26 27 26 25 26 27 26 25 25 23 23 23 24 25 25 25 28 32 34 37 40 42 43 46 49 50 50 50 52 53 54 58 57 55 59 60 59 62 65 67 68 67 69 71 72 75 79 86 92 89 87 88 85 85 87 87 86 89 90 88 86 85 82 77 74 73
37 38 38 38 37 36 34 32 31 29 28 28 30 34 35 33 31 28 27 26 28 28 28 27 25 26 28 27 26 26 24 23 24 25 26 26 26 28 31 35 38 40 43 43 45 48 50 50 50 49 51 53 53 56 56 56 60 64 62 61 66 69 67 64 67 69 71 73 77 86 91 89 88 88 86 84 83 84 85 88 88 85 83 81 79 73 69 69
37 37 37 35 34 32 31 30 29 28 29 32 35 37 35 32 30 28 28 28 29 28 27 26 26 27 28 26 27 25 24 25 25 26 27 27 28 30 34 37 40 43 45 46 48 49 50 50 49 49 50 52 54 57 59 60 61 65 67 63 62 65 65 64 64 66 70 69 73 84 87 83 84 84 84 84 83 84 86 87 85 81 78 76 73 69 66 67
38 37 36 35 33 31 31 29 28 29 33 36 37 35 32 30 28 28 28 27 27 27 26 26 27 29 28 27 27 25 26 27 27 27 27 28 31 33 36 39 43 47 48 49 50 50 50 49 49 49 49 53 56 61 66 67 64 62 64 63 61 63 65 66 65 64 67 68 71 77 79 81 83 82 83 84 84 86 86 84 79 75 71 66 64 65 67 68
40 38 36 34 33 31 30 29 30 32 36 37 35 31 29 28 27 27 26 25 27 27 28 27 27 29 29 28 27 27 27 28 27 28 28 29 31 34 38 43 47 50 50 50 50 50 49 49 50 50 49 52 55 61 68 68 64 60 60 63 62 63 65 67 67 65 65 68 71 71 75 79 80 78 80 81 81 82 81 77 72 68 64 61 61 66 68 67
40 39 36 34 32 31 30 30 32 34 36 35 33 29 28 27 26 25 23 25 28 28 29 27 25 28 28 27 27 27 28 28 29 29 29 31 33 37 41 45 49 50 50 50 49 49 48 47 49 51 51 53 54 58 63 61 59 60 62 64 64 64 65 67 68 65 64 68 70 71 73 73 72 74 76 76 74 75 74 72 68 64 63 61 62 64 66 65
38 37 36 34 31 30 29 30 33 36 36 35 33 30 29 28 27 25 24 26 30 30 29 26 26 29 26 25 27 27 28 29 29 30 32 34 37 41 44 46 48 49 48 49 48 47 47 48 51 52 52 52 52 53 56 57 57 59 61 63 65 66 65 65 65 61 62 68 69 71 74 71 69 68 69 70 70 71 71 69 67 66 66 64 62 62 64 63
36 35 35 33 29 28 29 31 35 36 35 33 31 30 30 31 30 29 28 28 29 29 27 26 30 31 26 25 27 27 29 30 30 32 34 37 40 44 45 45 46 47 47 47 48 45 44 49 52 49 45 45 48 50 52 54 57 59 60 62 63 64 65 65 63 58 60 66 67 69 73 71 68 65 66 69 67 67 67 65 67 68 67 65 62 61 61 58
35 32 31 29 26 26 29 32 35 35 33 31 30 32 34 33 32 30 29 30 29 27 26 27 31 29 26 26 27 28 30 31 32 34 35 38 42 44 45 44 44 47 47 45 45 43 43 49 49 44 40 41 43 46 51 54 58 59 60 62 62 63 65 65 63 59 59 65 65 65 70 72 69 66 66 69 67 66 66 64 66 67 66 64 61 59 58 55
33 30 28 26 26 29 31 32 33 33 32 31 31 34 34 31 30 29 29 30 29 28 29 29 28 27 26 28 28 30 32 32 34 35 36 40 43 45 45 44 44 45 44 42 43 45 46 48 45 41 40 39 39 43 50 55 56 57 60 64 63 63 65 64 62 59 58 66 67 64 69 71 68 66 64 65 67 68 67 65 64 64 64 63 61 58 56 53
32 29 28 27 29 33 34 33 33 32 31 31 30 32 32 30 28 29 31 32 29 31 34 31 30 28 29 29 28 31 33 32 36 38 39 42 44 45 44 43 43 42 40 40 41 44 48 47 43 42 42 40 40 43 50 55 55 56 60 63 61 62 66 66 62 58 58 63 64 64 68 68 65 64 61 60 62 65 64 63 62 63 62 62 60 57 54 51
33 29 29 28 30 34 34 33 33 32 32 30 28 29 31 30 30 31 33 33 31 34 35 33 32 32 31 30 29 31 32 32 36 39 40 43 45 44 44 43 40 39 38 36 36 39 43 45 42 43 43 41 43 44 48 55 54 54 56 58 59 60 63 62 60 60 60 59 59 64 67 64 62 63 61 58 57 59 59 58 58 58 57 57 58 57 53 50
34 30 28 27 29 32 31 32 32 32 33 31 29 30 31 31 31 31 33 35 35 34 35 34 33 32 32 30 29 32 32 33 37 39 39 42 45 44 44 42 39 38 36 33 34 37 42 44 43 44 43 43 45 44 46 51 54 55 54 55 58 59 61 60 60 64 65 62 59 62 66 61 57 58 60 57 53 53 53 52 51 50 50 51 55 57 54 51
35 30 26 24 26 28 29 30 31 32 33 31 29 30 30 30 30 31 33 36 36 35 37 36 34 33 32 30 30 32 35 37 38 38 39 41 43 43 42 40 38 38 37 34 36 39 40 41 41 42 43 43 46 47 44 46 55 58 52 53 56 58 61 62 62 64 64 62 56 56 62 59 54 52 54 55 52 50 49 48 48 48 48 49 52 54 54 52
37 29 23 21 22 24 27 29 30 32 32 30 29 28 29 28 29 32 35 39 39 37 38 37 36 36 33 32 33 35 40 42 39 37 41 43 42 42 42 40 39 39 37 37 41 42 37 38 41 41 43 44 47 49 44 43 54 56 49 51 56 59 62 61 62 60 57 59 55 53 57 60 58 53 49 52 53 53 51 48 49 50 49 48 49 51 51 51
38 30 23 20 21 22 25 27 30 31 30 29 27 28 29 28 31 35 37 43 43 38 36 37 38 38 34 34 35 37 42 42 40 38 40 43 42 41 41 39 40 40 38 38 43 42 35 36 39 40 43 46 45 43 40 41 50 50 46 50 54 58 61 60 60 57 56 63 62 55 54 59 61 54 48 50 52 55 54 50 48 47 46 46 47 49 50 51
37 33 26 21 20 21 22 25 28 29 28 27 26 29 30 29 34 37 39 46 44 38 37 39 40 37 37 38 35 39 43 41 40 39 39 41 40 39 40 37 37 39 38 37 39 39 34 34 36 38 43 45 42 39 38 41 46 45 45 50 53 56 58 58 58 56 59 64 61 57 56 61 63 55 50 53 52 52 52 49 48 47 46 47 49 50 51 52
36 33 28 23 20 19 20 22 25 26 26 25 26 29 30 31 36 39 42 48 46 41 40 41 43 41 42 43 38 40 42 39 39 38 39 41 39 37 38 36 36 38 39 36 36 36 34 34 34 36 39 41 42 43 41 40 42 44 46 50 54 55 55 56 54 55 64 64 57 57 56 60 64 56 51 53 51 49 50 50 51 50 49 50 51 52 52 53
33 33 31 28 24 20 20 21 22 24 24 24 25 28 30 33 36 39 43 47 47 45 42 43 45 44 44 45 42 41 40 38 39 39 39 40 39 37 36 36 37 39 41 40 39 37 35 36 36 35 37 40 44 47 44 42 43 46 48 51 58 58 56 58 57 55 60 60 56 56 55 59 64 58 50 49 47 47 48 49 50 50 49 49 51 52 51 52
32 32 30 29 27 25 23 21 21 23 23 23 24 27 33 34 35 41 44 45 48 49 46 46 47 46 45 44 42 41 40 40 39 38 39 39 39 37 36 39 41 43 47 46 44 42 38 39 39 39 40 40 45 49 49 48 49 49 49 53 60 59 54 55 56 51 51 56 56 55 58 60 58 53 48 46 46 47 47 47 47 47 47 46 47 50 50 50
32 32 30 29 29 28 25 22 24 26 24 23 23 29 35 35 37 45 46 45 50 50 47 48 47 45 44 42 42 40 39 39 38 38 39 38 37 37 37 38 38 41 46 45 45 46 45 44 43 44 44 41 44 51 54 54 54 53 53 56 59 57 54 54 53 48 50 56 56 56 59 58 54 52 48 45 46 47 48 47 45 47 48 46 46 49 50 50
34 34 32 31 31 28 25 25 28 30 28 26 27 33 37 36 38 44 45 46 49 49 48 48 46 43 42 43 43 40 38 38 36 38 40 38 38 39 38 37 37 39 41 41 43 46 47 49 48 46 45 41 41 46 50 51 52 53 53 53 55 55 55 55 53 49 49 53 55 57 57 51 52 55 48 44 44 45 48 48 45 47 50 49 48 49 49 48
35 35 34 33 32 29 26 25 28 33 33 32 34 37 37 37 38 39 42 45 47 49 50 48 44 44 43 41 41 40 39 39 38 39 40 38 39 39 37 37 38 38 39 42 45 44 45 48 47 43 40 38 40 42 42 46 54 55 50 52 54 52 51 51 50 49 48 50 51 53 53 47 47 48 42 42 44 43 45 46 44 45 48 49 49 48 48 46
37 36 36 36 33 31 29 26 26 31 34 34 37 37 36 39 40 40 43 46 47 50 51 48 46 46 44 41 39 39 39 40 38 39 39 37 37 37 36 38 38 35 37 41 44 45 47 47 44 41 38 35 38 41 41 47 55 54 50 51 49 45 47 50 51 50 48 50 48 44 45 44 46 48 44 42 43 43 43 43 43 42 43 45 45 46 46 44
40 39 39 37 35 33 33 30 27 29 31 33 36 34 34 38 38 42 48 49 50 51 51 52 51 47 46 44 41 39 40 41 39 38 40 38 37 37 37 37 36 36 37 40 43 44 44 46 43 39 38 35 34 38 41 44 50 51 49 47 43 45 49 48 48 50 47 48 47 43 41 40 45 50 48 44 45 44 42 41 42 41 41 43 43 43 44 41
41 40 41 39 37 35 34 33 32 31 33 35 35 33 35 39 39 43 49 51 52 51 51 54 53 47 45 45 43 41 40 42 40 38 39 39 38 38 37 37 37 38 38 38 42 42 40 44 44 38 37 35 32 35 42 43 43 45 43 39 39 48 53 48 44 45 45 44 43 41 38 38 41 43 43 45 46 46 43 42 42 42 42 43 42 43 44 41
41 41 43 41 38 36 34 34 34 34 36 37 36 34 36 40 41 46 50 50 49 50 51 52 50 46 45 44 44 42 40 41 40 38 38 39 39 38 37 38 39 40 38 38 40 40 36 40 42 38 37 36 34 37 43 44 40 38 38 38 39 43 45 45 43 40 41 41 38 35 34 36 39 35 35 40 43 44 44 42 42 43 44 45 44 43 44 43
40 44 46 41 37 37 35 33 34 36 37 36 35 34 36 40 42 45 49 48 48 50 51 50 48 48 47 45 44 43 42 42 40 39 39 38 38 38 38 38 39 38 38 38 38 37 35 35 38 38 38 38 38 39 41 42 41 40 41 43 45 44 42 43 43 39 37 35 33 34 32 33 35 32 30 34 37 39 42 43 43 44 44 46 45 43 43 45
38 43 45 39 37 37 36 36 37 38 38 37 35 35 36 40 43 44 47 48 48 49 49 48 48 49 48 47 46 44 42 42 40 38 38 37 37 39 39 39 39 38 39 40 38 37 36 35 35 38 39 41 41 38 35 36 39 40 41 42 44 45 43 43 44 41 36 33 33 34 32 31 34 32 28 31 34 37 40 44 46 46 45 47 47 45 44 46
37 41 43 39 37 37 36 36 37 37 40 41 38 38 39 41 44 46 48 48 49 49 47 47 47 47 46 47 46 44 42 42 40 36 36 37 38 39 39 39 39 38 39 41 40 38 37 35 34 36 38 38 37 36 35 35 36 36 38 39 39 40 40 40 42 41 38 37 36 34 33 34 36 32 27 29 33 34 37 42 46 48 47 47 49 50 49 48
38 39 40 37 36 37 36 35 33 34 38 39 39 39 41 43 47 49 48 48 50 51 49 47 47 47 46 45 44 44 43 42 39 36 37 37 37 38 38 38 39 38 39 41 41 38 37 35 35 35 35 34 32 32 34 34 33 33 37 37 35 37 39 37 38 39 36 37 37 35 33 34 37 31 25 29 33 34 37 39 43 46 45 46 50 51 51 51
38 38 37 36 35 35 34 32 30 32 36 39 40 40 41 44 49 50 50 49 50 51 51 50 48 48 47 45 44 44 43 41 39 36 37 37 37 40 39 38 38 39 40 41 40 38 36 36 37 36 36 36 35 35 36 37 36 36 38 37 35 39 40 36 37 36 33 34 36 35 33 33 33 28 25 29 32 34 38 40 43 45 45 46 47 49 52 52
36 37 36 35 34 34 34 32 29 32 38 41 41 40 39 43 49 51 51 51 51 52 53 52 49 48 47 46 45 45 44 43 41 38 37 37 38 40 41 40 39 39 41 41 38 34 34 36 36 35 36 37 38 41 42 41 40 38 38 37 38 41 40 37 37 35 36 38 36 36 36 33 30 29 30 31 32 34 37 41 44 46 46 47 47 48 51 51
33 34 33 34 34 33 34 32 29 32 39 41 42 40 39 43 50 53 53 54 54 54 54 53 50 48 47 46 46 46 44 44 43 40 39 39 38 39 41 41 40 39 40 38 34 31 31 33 34 34 34 34 37 39 38 37 39 41 41 40 39 39 37 36 35 35 39 39 34 35 37 32 31 32 33 33 33 35 37 39 42 44 46 48 48 47 48 48
28 30 30 32 32 31 31 30 28 31 37 39 40 41 40 44 51 55 56 56 57 57 56 54 51 48 47 46 46 45 44 44 44 42 41 40 39 39 40 41 39 38 36 33 31 30 30 32 34 34 33 32 32 33 34 36 39 40 40 40 39 36 34 35 36 37 38 35 33 37 36 31 32 32 30 32 33 35 36 38 40 42 45 47 48 46 46 46
25 29 31 31 32 31 31 30 29 31 34 37 40 42 42 44 49 53 56 56 57 57 56 55 52 48 47 45 44 44 42 43 44 42 40 40 40 39 37 36 35 33 31 29 29 30 31 33 35 34 33 33 32 33 36 37 37 36 36 36 36 34 34 35 36 37 36 32 34 37 34 31 32 29 28 32 33 34 36 39 41 42 43 44 45 45 43 44
24 28 32 32 33 34 33 34 33 32 32 35 40 41 42 44 47 50 53 55 57 57 56 57 54 49 47 45 44 45 45 43 44 42 40 40 40 37 34 33 32 31 31 30 31 32 32 34 34 32 33 35 34 35 37 35 34 34 34 33 33 33 33 33 33 33 32 32 34 35 31 31 32 27 26 30 32 32 34 35 38 40 41 41 42 42 40 41
27 30 32 32 33 34 35 35 33 34 36 38 39 41 42 43 46 48 51 55 59 58 57 58 56 52 51 49 46 46 45 44 44 44 41 39 38 34 32 33 33 33 33 32 32 33 32 34 35 32 34 37 35 34 35 33 32 34 34 33 32 32 33 32 31 31 31 32 35 32 31 35 36 29 26 28 30 31 33 34 35 36 37 39 39 40 39 39
30 31 32 33 33 32 33 33 32 36 41 41 41 43 42 42 46 51 55 57 59 60 59 57 55 53 52 50 47 45 43 41 40 40 36 36 36 33 31 33 33 33 33 31 31 32 30 31 33 32 34 37 36 34 34 33 31 33 37 37 34 34 35 33 31 31 31 32 34 31 30 36 37 29 26 29 28 29 32 36 35 33 33 34 36 37 38 38
32 33 32 33 34 31 30 32 33 36 43 46 45 45 44 45 48 55 62 64 62 62 59 55 53 52 51 51 49 44 41 37 36 34 32 32 32 31 30 32 32 32 32 30 30 30 27 29 32 32 32 35 34 32 33 34 34 35 38 37 34 33 33 31 30 30 28 29 31 32 31 31 29 25 26 29 28 28 34 37 36 36 35 33 33 34 35 37